SCP
-0 -0 0 -0 -0 -0 0 0 -0 0 0 0 0 0 0 0 0 0 0 0 0 0 0 0 0 0 0 0 0 0 0 0 0 0 0 0 0 0 0 0 0 0 0 0 0 0 0 0 0
-0 0 -0 -0 -0 0 -0 0 0 0 0 0 0 0 0 0 0 0 0 0 0 0 0 0 0 0 0 0 0 0 0 0 0 0 0 0 0 0 0 0 0 0 0 0 0 0 0 0 0
0 -0 -0 -0 0 0 0 0 0 0 0 0 0 0 0 0 0 0 0 0 0 0 0 0 0 0 0 0 0 0 0 0 0 0 0 0 0 0 0 0 0 0 0 0 0 0 0 0 0
0 -0 -0 0 0 0 0 0 0 0 0 0 0 0 0 0 0 0 0 0 0 0 0 0 0 0 0 0 0 0 0 0 1 0 0 0 0 0 0 0 0 0 0 0 0 0 0 0 0
-0 0 0 0 0 0 0 0 0 0 0 0 0 0 0 0 0 0 0 0 0 0 0 0 0 0 0 0 0 0 0 0 0 1 0 0 0 0 0 0 0 0 0 0 0 0 0 0 0
0 0 0 0 0 0 0 0 0 0 0 0 0 0 0 0 0 0 0 0 0 0 0 0 0 0 0 0 0 0 0 0 0 0 0 1 0 0 0 0 0 0 0 0 0 0 0 0 0
0 0 0 0 0 0 0 0 0 0 0 0 0 0 0 0 0 0 0 0 0 0 0 0 0 0 0 0 0 0 0 0 0 0 0 0 0 0 0 0 0 0 0 0 0 0 0 0 0
0 0 0 0 0 0 0 0 0 0 0 0 0 0 0 0 0 0 0 0 0 0 0 0 0 0 0 0 0 0 0 0 0 0 0 0 0 0 0 0 0 0 0 0 0 0 0 0 0
0 0 0 0 0 0 0 0 0 0 0 0 0 0 0 0 0 0 0 0 0 0 0 0 0 0 0 0 0 0 0 0 0 0 0 0 0 0 0 0 0 0 0 0 0 0 0 0 0
0 0 0 0 0 0 0 0 0 0 0 0 0 0 0 0 0 0 0 0 0 0 0 0 0 0 0 0 0 0 0 0 0 0 0 0 0 0 0 0 0 0 0 0 0 0 0 0 0
0 0 0 0 0 0 0 0 0 0 0 0 0 0 0 0 0 0 0 0 0 0 0 0 0 0 0 0 0 0 0 0 0 0 0 0 0 0 0 0 0 0 0 0 0 0 0 0 0
0 0 0 0 0 0 0 0 0 0 0 0 0 0 0 0 0 0 0 0 0 0 0 0 0 0 0 0 0 0 0 0 0 0 0 0 0 0 0 0 0 0 0 0 0 0 0 0 0
0 0 0 0 0 0 0 0 0 0 0 0 0 0 0 0 0 0 0 0 0 0 0 0 0 0 0 0 0 0 0 0 0 0 0 0 0 0 0 0 0 0 0 0 0 0 0 0 0
0 0 0 0 0 0 0 0 0 0 0 0 0 0 0 0 0 0 0 0 0 0 0 0 0 0 0 0 0 0 0 0 0 0 0 0 0 0 0 0 0 0 0 0 0 0 0 0 0
0 0 0 0 0 0 0 0 0 0 0 0 0 0 0 0 0 0 0 0 0 0 0 0 0 0 0 0 0 0 0 0 0 0 0 0 0 0 0 0 0 0 0 0 0 0 0 0 0
0 0 0 0 0 0 0 0 0 0 0 0 0 0 0 0 0 0 0 0 0 0 0 0 0 0 0 0 0 0 0 0 0 0 0 0 0 0 0 0 0 0 0 0 0 0 0 0 0
0 0 0 0 0 0 0 0 0 0 0 0 0 0 0 0 0 0 0 0 0 0 0 0 0 0 0 0 0 0 0 0 0 0 0 0 0 0 0 0 0 0 0 0 0 0 0 0 0
0 0 0 0 0 0 0 -0 -0 0 0 0 0 0 0 0 0 0 0 0 0 0 0 0 0 0 0 0 0 0 0 0 0 0 0 0 0 0 0 0 0 0 0 0 0 0 0 0 0
0 0 0 0 0 0 0 0 -0 0 0 0 0 0 0 0 0 0 0 0 0 0 0 0 0 0 0 0 0 0 0 0 0 0 0 0 0 0 0 0 0 0 0 0 0 0 0 0 0
0 0 0 0 0 0 0 -0 -0 -0 0 0 0 0 0 0 0 0 0 0 0 0 0 0 0 0 0 0 0 0 0 0 0 0 0 0 0 0 0 0 0 0 0 0 -0 0 0 0 0
0 0 0 0 0 0 0 0 0 0 0 0 0 0 0 0 0 0 0 0 0 0 0 0 0 0 0 0 0 0 0 0 0 0 0 0 0 0 0 0 0 0 0 -0 -0 0 0 0 0
0 0 0 0 0 0 0 -0 0 0 0 0 0 0 0 0 0 0 0 0 0 0 0 0 0 0 0 0 0 0 0 0 0 0 0 0 0 0 0 0 0 0 0 0 0 0 0 0 -0
0 0 0 0 0 0 0 0 0 0 0 0 0 0 0 0 0 0 0 0 0 0 0 0 0 0 0 0 0 0 0 0 0 0 0 0 0 0 0 0 0 0 0 0 0 -0 0 0 0
0 0 0 0 0 0 0 0 0 0 0 0 0 0 0 0 0 0 0 0 0 0 0 0 0 0 0 0 0 0 0 0 0 0 0 0 0 0 0 0 0 0 0 0 -0 -0 0 0 0
0 0 0 0 0 0 0 0 0 0 0 0 0 0 0 0 0 0 0 0 0 0 0 0 0 0 0 0 0 0 0 0 0 0 0 0 0 0 0 0 0 0 0 0 0 0 -0 0 0
0 0 0 0 0 0 0 0 0 0 0 0 0 0 0 0 0 0 0 0 0 0 0 0 0 0 0 0 0 0 0 0 0 0 0 0 0 0 0 0 0 0 0 0 0 0 0 0 0
0 0 0 0 0 0 0 0 0 0 0 0 0 0 0 0 0 0 0 0 0 0 0 0 0 0 0 0 0 0 0 0 0 0 0 0 0 0 0 0 0 0 0 0 0 0 0 0 0
0 0 0 0 0 0 0 0 0 0 0 0 0 0 0 0 0 0 0 0 0 0 0 0 0 0 0 0 -0 -0 0 0 0 0 0 0 0 0 0 0 0 0 0 -0 -0 0 0 0 0
0 0 0 0 0 0 0 0 0 0 0 0 0 -0 0 0 0 0 0 0 0 0 0 0 0 0 0 0 0 0 0 0 0 0 0 0 0 0 0 -0 -0 0 0 -0 0 -0 0 -0 -0
0 0 0 0 0 0 0 0 0 0 0 0 0 0 0 0 0 0 0 0 0 0 0 0 0 0 0 -0 -0 -0 0 -0 0 0 0 -0 -0 0 0 -0 -0 0 -0 -0 -0 -0 -0 0 0
Wind_Speed_500mb
9 11 9 2 7 9 5 6 4 1 1 5 3 4 16 10 5 4 15 6 11 13 13 15 19 19 23 23 26 26 26 28 28 30 30 30 30 29 28 26 23 21 19 19 15 17 26 26 13
10 13 10 7 8 4 9 6 3 3 3 21 16 10 9 4 7 7 5 8 13 16 16 17 17 22 27 32 29 30 31 29 32 33 34 33 33 33 33 30 25 21 20 18 19 21 23 24 21
15 15 8 8 6 8 8 5 6 1 7 5 9 12 6 7 7 5 6 13 15 19 23 23 22 25 26 35 36 38 36 36 36 39 39 38 36 37 38 32 30 27 25 21 21 25 25 26 22
11 8 9 7 9 9 7 5 5 3 2 10 13 11 9 7 5 4 12 18 21 24 29 31 32 31 32 36 41 45 43 44 42 44 44 44 43 40 43 37 35 36 30 24 23 31 25 26 26
12 5 7 3 7 7 5 2 2 2 4 7 2 8 11 9 3 6 14 21 27 32 36 41 45 44 41 39 44 51 50 52 51 49 49 50 49 47 47 45 40 42 36 28 30 32 31 27 30
5 4 7 5 8 5 7 1 3 3 2 1 5 12 8 10 4 9 19 30 35 38 41 43 47 49 49 50 52 54 55 57 57 52 57 55 54 53 51 50 49 48 40 30 33 37 39 36 32
9 7 7 6 5 4 7 3 3 6 3 5 11 10 8 10 7 15 25 33 37 39 42 44 46 48 51 52 53 57 57 57 58 63 63 65 63 56 55 54 55 55 43 35 35 39 27 35 35
8 8 5 6 6 8 6 7 5 10 11 9 8 9 6 19 15 21 30 35 35 33 33 34 34 36 42 48 51 56 58 60 57 66 71 77 60 57 55 55 57 59 47 38 37 39 31 34 33
7 7 3 7 9 6 6 5 8 6 8 11 9 9 9 10 15 23 27 26 22 23 30 35 38 40 42 41 43 49 57 57 59 62 73 79 54 62 62 60 59 59 49 39 43 36 25 36 32
8 6 11 3 3 4 4 8 8 6 10 12 14 13 10 13 19 24 25 22 25 33 38 42 46 50 54 55 53 49 49 54 51 58 60 64 72 61 67 57 60 65 48 42 47 35 27 32 33
6 8 4 5 4 4 6 7 9 7 12 22 28 27 19 20 19 21 21 21 32 37 42 47 51 55 57 60 59 54 49 49 48 52 53 55 53 55 60 61 63 64 53 51 48 40 37 36 35
0 5 5 4 7 5 6 6 10 27 14 7 16 19 21 16 18 19 19 28 34 39 44 50 55 59 59 62 63 64 59 47 49 49 46 51 51 52 57 68 73 71 61 57 54 49 37 36 34
2 3 7 10 11 13 12 18 15 30 32 26 19 20 19 16 18 20 25 30 36 43 49 53 57 61 65 70 74 66 52 49 51 52 48 45 50 46 46 33 84 76 63 62 57 48 41 38 37
2 5 9 11 12 14 8 9 3 10 22 32 26 23 22 19 18 21 28 32 39 46 53 59 59 67 68 75 64 43 47 49 50 49 47 43 44 47 49 35 53 50 54 61 54 51 44 38 39
2 7 10 13 10 8 4 14 20 41 14 32 31 26 24 21 19 24 28 33 42 48 56 60 64 67 65 66 49 44 45 44 47 45 49 42 42 50 50 51 74 66 69 68 61 54 42 37 38
3 4 6 3 13 3 3 18 8 12 26 34 33 28 26 25 22 24 28 34 42 48 54 57 62 64 63 55 43 49 50 45 42 39 36 38 41 51 58 47 63 74 76 76 68 57 48 36 43
6 7 8 12 16 4 8 16 7 10 29 34 36 34 29 28 27 25 28 34 40 45 51 57 64 62 62 43 45 48 48 47 40 34 31 30 38 46 55 56 19 77 79 83 78 64 57 41 42
8 7 9 10 4 8 11 37 31 36 36 49 47 40 32 30 29 26 27 33 37 44 50 56 64 66 56 38 43 43 44 41 39 33 29 26 30 43 54 57 27 66 75 76 73 63 58 51 47
4 6 8 8 0 6 14 32 39 33 42 47 58 51 38 31 27 26 27 32 36 42 51 56 66 67 51 38 46 46 48 47 39 30 24 22 19 37 52 48 34 59 63 47 68 49 59 52 40
5 3 9 9 4 2 11 41 38 11 16 40 46 56 47 31 29 24 25 30 34 43 50 57 63 66 46 39 42 48 48 44 36 29 13 14 14 35 50 36 55 70 65 53 29 38 61 60 48
5 8 6 7 11 1 15 17 9 4 8 9 22 30 38 32 28 21 22 27 32 41 51 57 64 60 38 37 40 43 45 46 41 29 13 6 10 40 50 50 58 68 53 19 51 63 66 71 60
6 6 5 4 9 7 9 10 13 9 14 4 11 20 27 29 25 17 19 22 30 40 46 53 58 49 29 37 40 44 44 43 28 22 15 5 20 43 39 58 42 72 56 56 61 64 63 70 70
7 6 5 5 4 6 7 5 16 8 9 5 10 24 28 28 20 14 16 18 27 36 45 50 51 39 30 34 40 38 34 28 21 18 20 25 34 31 30 46 63 68 44 46 53 65 67 69 76
11 9 10 7 3 4 4 8 12 5 7 2 5 30 33 29 22 14 11 13 20 30 38 49 45 36 35 37 41 35 25 23 25 23 31 29 35 19 31 33 32 47 44 39 47 57 62 59 65
4 8 4 8 5 9 6 3 22 10 9 8 8 36 38 31 24 14 8 9 16 27 34 45 48 31 33 37 41 37 25 26 30 29 28 23 23 26 29 24 25 27 27 32 35 53 55 49 57
10 9 8 10 4 7 6 12 11 9 8 14 14 23 35 32 24 15 8 6 11 19 23 31 46 40 31 31 35 29 23 21 36 34 33 37 31 23 24 25 25 26 21 22 32 52 53 54 61
9 8 3 11 4 5 6 15 15 8 5 2 10 26 36 34 27 17 10 5 5 13 17 26 34 36 35 34 30 29 24 21 33 40 27 31 33 24 23 25 22 19 12 11 24 27 44 57 48
6 8 5 5 5 7 9 11 11 6 13 12 12 33 39 35 31 24 14 8 5 8 15 20 25 33 39 33 23 23 24 22 23 41 39 36 39 32 28 32 28 31 25 31 48 58 55 46 46
7 5 2 4 7 8 3 11 13 11 12 19 19 43 45 42 36 28 20 12 10 5 15 13 17 21 33 37 33 26 20 21 18 30 38 33 32 37 34 35 62 69 64 53 57 61 54 51 64
6 12 11 8 10 6 1 13 5 10 8 16 29 43 43 40 35 31 24 17 15 11 13 15 15 15 23 35 37 39 34 34 32 28 30 35 44 51 59 60 57 60 62 62 65 72 57 54 53
Wind_Direction_500mb
217 206 197 73 44 58 262 246 294 101 72 326 317 75 118 71 89 206 148 355 322 320 305 292 282 275 269 280 265 264 267 258 256 250 245 244 242 239 229 232 239 233 224 219 209 199 186 195 181
189 171 144 92 88 58 269 278 214 272 89 113 86 82 50 83 94 116 198 295 304 313 311 302 290 285 278 276 281 270 264 261 256 256 251 246 243 235 231 235 236 235 225 216 191 215 192 204 215
169 158 121 99 112 186 221 226 208 294 40 155 102 75 97 109 99 134 349 316 308 302 306 305 298 280 273 270 272 269 266 262 256 250 249 245 241 236 231 232 231 228 216 214 204 218 218 206 196
150 131 69 98 213 242 214 197 245 192 77 57 110 72 93 116 147 359 329 315 311 308 304 301 297 290 277 268 264 266 262 255 252 250 246 243 240 234 232 231 232 217 213 216 216 206 215 208 189
148 122 77 99 263 272 234 216 327 55 345 43 138 163 154 130 130 337 329 322 313 306 301 297 296 289 280 274 265 261 255 247 248 247 243 243 240 235 230 231 226 216 211 213 206 204 210 205 192
109 110 65 228 236 242 272 218 133 85 273 5 99 146 175 154 224 308 316 311 309 304 299 297 292 290 288 279 270 265 263 256 254 252 246 238 239 238 233 229 224 216 214 210 208 208 222 201 199
117 87 210 219 238 242 217 145 171 192 238 236 156 147 180 187 306 315 311 310 305 305 304 300 298 294 289 285 281 275 268 262 260 252 247 244 228 230 235 230 224 217 213 207 206 213 220 195 191
103 88 203 260 201 261 170 148 176 201 233 189 196 193 214 212 270 290 299 300 302 308 313 321 318 312 302 295 287 281 273 265 258 255 254 247 240 224 230 231 226 217 209 208 213 213 218 195 184
99 62 256 260 146 253 156 155 212 225 217 212 218 185 194 232 273 296 295 301 315 330 340 334 334 328 320 314 307 288 274 270 261 258 256 259 261 227 224 224 223 215 207 202 210 213 235 187 186
91 123 228 217 184 237 204 206 211 231 214 223 206 204 234 271 290 301 311 319 331 336 335 333 332 332 332 327 319 310 288 276 266 261 258 258 258 242 226 223 221 214 202 200 205 208 220 196 188
127 202 226 241 224 209 224 251 225 209 248 226 213 212 239 264 292 308 311 324 330 333 332 334 334 334 331 327 322 314 305 284 273 268 262 256 257 244 218 223 224 204 201 198 201 203 216 207 191
150 238 225 258 241 245 230 264 262 225 237 259 224 220 241 266 296 304 310 322 328 331 333 333 331 332 327 322 319 313 301 295 279 273 269 257 249 233 224 218 211 202 196 198 199 202 210 204 189
162 250 239 254 253 257 258 253 252 258 248 244 229 235 248 264 297 301 307 315 326 329 332 333 330 329 324 324 323 317 310 296 286 274 266 258 248 233 226 240 213 196 195 198 200 200 200 196 185
305 271 284 260 256 255 254 266 298 270 227 222 224 236 249 258 294 295 302 316 326 329 332 332 331 329 326 326 323 324 321 314 307 279 267 254 246 225 220 193 191 200 202 201 202 201 197 191 187
33 320 305 244 228 250 318 274 234 247 246 217 223 237 247 254 276 290 301 315 324 328 332 330 332 328 325 327 331 330 324 314 308 298 277 248 244 215 208 200 198 210 212 213 203 201 196 190 184
352 44 320 195 176 230 106 273 253 226 205 214 223 238 248 251 264 281 297 313 319 327 329 332 332 329 329 332 335 327 322 317 310 300 291 247 236 220 211 207 208 222 213 217 200 195 193 188 179
12 244 228 307 201 142 185 273 244 215 208 226 230 238 249 248 252 268 291 309 320 330 330 334 336 336 334 341 336 332 333 325 314 301 289 269 236 220 217 208 179 208 210 203 202 196 187 180 176
209 229 249 252 220 221 248 259 264 256 234 239 241 237 243 244 247 261 286 309 322 331 332 337 343 340 340 346 334 346 345 339 327 310 291 268 245 218 211 202 190 190 190 202 204 192 177 174 175
154 220 254 271 171 260 244 277 276 261 242 235 237 235 237 242 237 254 286 308 324 332 336 343 345 347 350 349 340 342 340 341 338 318 288 261 239 214 197 190 192 204 199 203 204 190 174 161 176
228 220 270 280 299 254 321 288 286 260 241 239 231 235 233 227 227 249 287 308 330 340 341 348 346 348 349 344 345 340 343 342 337 337 300 236 219 191 180 164 186 185 173 143 135 200 167 171 173
227 194 228 245 317 239 313 292 334 291 297 295 233 238 224 219 223 245 284 313 337 344 349 353 348 351 351 348 342 348 355 356 8 9 15 238 186 175 163 168 172 169 173 155 184 203 185 173 176
247 185 150 55 28 273 8 279 305 300 305 274 177 177 188 201 215 244 289 320 342 352 356 358 354 356 357 353 351 358 359 6 6 26 43 74 155 155 165 163 173 179 189 184 189 201 183 178 177
228 124 93 82 72 337 355 67 271 346 322 248 190 187 195 201 214 245 291 330 348 358 6 0 2 5 6 1 358 5 10 32 27 50 60 106 137 157 142 175 177 188 193 197 195 198 184 185 183
144 77 44 51 59 348 243 115 285 241 217 304 193 196 200 207 211 236 282 333 352 9 18 4 17 11 15 14 10 12 9 52 58 70 106 119 149 137 156 159 183 197 200 193 201 202 192 192 191
91 89 331 345 10 227 147 89 247 259 239 222 209 205 203 203 209 228 271 325 358 19 31 20 28 19 14 4 21 33 38 72 77 88 106 118 139 142 148 146 168 180 189 198 209 213 191 190 190
181 171 167 209 215 284 89 235 249 200 271 245 244 210 195 194 207 221 255 318 2 27 41 29 19 24 24 19 25 45 54 86 95 94 105 99 101 117 143 148 153 174 192 206 223 191 184 189 199
186 199 165 106 41 39 231 281 293 228 228 140 171 180 188 192 205 214 237 274 340 26 43 44 24 12 28 31 36 54 71 76 107 108 103 110 109 96 139 137 157 164 201 174 187 189 145 137 129
157 164 85 352 138 257 279 275 244 264 217 215 196 203 196 196 200 207 222 234 257 40 47 63 39 24 34 34 33 46 80 88 103 121 124 135 134 142 135 148 153 150 154 157 150 133 128 123 124
141 208 132 135 163 180 277 265 210 221 198 208 213 213 205 202 204 203 205 214 228 112 71 68 59 47 55 54 53 66 86 98 105 120 122 124 134 135 133 134 125 123 125 129 130 129 128 134 132
170 195 173 147 215 243 211 274 176 215 219 216 231 219 214 212 211 208 203 205 222 174 113 94 86 78 81 75 67 68 83 92 101 102 110 121 127 128 124 128 127 124 126 125 126 125 128 130 137
Wind_Speed_850mb
9 11 9 2 7 9 5 6 4 1 1 5 3 4 16 10 5 4 15 6 11 13 13 15 19 19 23 23 26 26 26 28 28 30 30 30 30 29 28 26 23 21 19 19 15 17 26 26 13
10 13 10 7 8 4 9 6 3 3 3 21 16 10 9 4 7 7 5 8 13 16 16 17 17 22 27 32 29 30 31 29 32 33 34 33 33 33 33 30 25 21 20 18 19 21 23 24 21
15 15 8 8 6 8 8 5 6 1 7 5 9 12 6 7 7 5 6 13 15 19 23 23 22 25 26 35 36 38 36 36 36 39 39 38 36 37 38 32 30 27 25 21 21 25 25 26 22
11 8 9 7 9 9 7 5 5 3 2 10 13 11 9 7 5 4 12 18 21 24 29 31 32 31 32 36 41 45 43 44 42 44 44 44 43 40 43 37 35 36 30 24 23 31 25 26 26
12 5 7 3 7 7 5 2 2 2 4 7 2 8 11 9 3 6 14 21 27 32 36 41 45 44 41 39 44 51 50 52 51 49 49 50 49 47 47 45 40 42 36 28 30 32 31 27 30
5 4 7 5 8 5 7 1 3 3 2 1 5 12 8 10 4 9 19 30 35 38 41 43 47 49 49 50 52 54 55 57 57 52 57 55 54 53 51 50 49 48 40 30 33 37 39 36 32
9 7 7 6 5 4 7 3 3 6 3 5 11 10 8 10 7 15 25 33 37 39 42 44 46 48 51 52 53 57 57 57 58 63 63 65 63 56 55 54 55 55 43 35 35 39 27 35 35
8 8 5 6 6 8 6 7 5 10 11 9 8 9 6 19 15 21 30 35 35 33 33 34 34 36 42 48 51 56 58 60 57 66 71 77 60 57 55 55 57 59 47 38 37 39 31 34 33
7 7 3 7 9 6 6 5 8 6 8 11 9 9 9 10 15 23 27 26 22 23 30 35 38 40 42 41 43 49 57 57 59 62 73 79 54 62 62 60 59 59 49 39 43 36 25 36 32
8 6 11 3 3 4 4 8 8 6 10 12 14 13 10 13 19 24 25 22 25 33 38 42 46 50 54 55 53 49 49 54 51 58 60 64 72 61 67 57 60 65 48 42 47 35 27 32 33
6 8 4 5 4 4 6 7 9 7 12 22 28 27 19 20 19 21 21 21 32 37 42 47 51 55 57 60 59 54 49 49 48 52 53 55 53 55 60 61 63 64 53 51 48 40 37 36 35
0 5 5 4 7 5 6 6 10 27 14 7 16 19 21 16 18 19 19 28 34 39 44 50 55 59 59 62 63 64 59 47 49 49 46 51 51 52 57 68 73 71 61 57 54 49 37 36 34
2 3 7 10 11 13 12 18 15 30 32 26 19 20 19 16 18 20 25 30 36 43 49 53 57 61 65 70 74 66 52 49 51 52 48 45 50 46 46 33 84 76 63 62 57 48 41 38 37
2 5 9 11 12 14 8 9 3 10 22 32 26 23 22 19 18 21 28 32 39 46 53 59 59 67 68 75 64 43 47 49 50 49 47 43 44 47 49 35 53 50 54 61 54 51 44 38 39
2 7 10 13 10 8 4 14 20 41 14 32 31 26 24 21 19 24 28 33 42 48 56 60 64 67 65 66 49 44 45 44 47 45 49 42 42 50 50 51 74 66 69 68 61 54 42 37 38
3 4 6 3 13 3 3 18 8 12 26 34 33 28 26 25 22 24 28 34 42 48 54 57 62 64 63 55 43 49 50 45 42 39 36 38 41 51 58 47 63 74 76 76 68 57 48 36 43
6 7 8 12 16 4 8 16 7 10 29 34 36 34 29 28 27 25 28 34 40 45 51 57 64 62 62 43 45 48 48 47 40 34 31 30 38 46 55 56 19 77 79 83 78 64 57 41 42
8 7 9 10 4 8 11 37 31 36 36 49 47 40 32 30 29 26 27 33 37 44 50 56 64 66 56 38 43 43 44 41 39 33 29 26 30 43 54 57 27 66 75 76 73 63 58 51 47
4 6 8 8 0 6 14 32 39 33 42 47 58 51 38 31 27 26 27 32 36 42 51 56 66 67 51 38 46 46 48 47 39 30 24 22 19 37 52 48 34 59 63 47 68 49 59 52 40
5 3 9 9 4 2 11 41 38 11 16 40 46 56 47 31 29 24 25 30 34 43 50 57 63 66 46 39 42 48 48 44 36 29 13 14 14 35 50 36 55 70 65 53 29 38 61 60 48
5 8 6 7 11 1 15 17 9 4 8 9 22 30 38 32 28 21 22 27 32 41 51 57 64 60 38 37 40 43 45 46 41 29 13 6 10 40 50 50 58 68 53 19 51 63 66 71 60
6 6 5 4 9 7 9 10 13 9 14 4 11 20 27 29 25 17 19 22 30 40 46 53 58 49 29 37 40 44 44 43 28 22 15 5 20 43 39 58 42 72 56 56 61 64 63 70 70
7 6 5 5 4 6 7 5 16 8 9 5 10 24 28 28 20 14 16 18 27 36 45 50 51 39 30 34 40 38 34 28 21 18 20 25 34 31 30 46 63 68 44 46 53 65 67 69 76
11 9 10 7 3 4 4 8 12 5 7 2 5 30 33 29 22 14 11 13 20 30 38 49 45 36 35 37 41 35 25 23 25 23 31 29 35 19 31 33 32 47 44 39 47 57 62 59 65
4 8 4 8 5 9 6 3 22 10 9 8 8 36 38 31 24 14 8 9 16 27 34 45 48 31 33 37 41 37 25 26 30 29 28 23 23 26 29 24 25 27 27 32 35 53 55 49 57
10 9 8 10 4 7 6 12 11 9 8 14 14 23 35 32 24 15 8 6 11 19 23 31 46 40 31 31 35 29 23 21 36 34 33 37 31 23 24 25 25 26 21 22 32 52 53 54 61
9 8 3 11 4 5 6 15 15 8 5 2 10 26 36 34 27 17 10 5 5 13 17 26 34 36 35 34 30 29 24 21 33 40 27 31 33 24 23 25 22 19 12 11 24 27 44 57 48
6 8 5 5 5 7 9 11 11 6 13 12 12 33 39 35 31 24 14 8 5 8 15 20 25 33 39 33 23 23 24 22 23 41 39 36 39 32 28 32 28 31 25 31 48 58 55 46 46
7 5 2 4 7 8 3 11 13 11 12 19 19 43 45 42 36 28 20 12 10 5 15 13 17 21 33 37 33 26 20 21 18 30 38 33 32 37 34 35 62 69 64 53 57 61 54 51 64
6 12 11 8 10 6 1 13 5 10 8 16 29 43 43 40 35 31 24 17 15 11 13 15 15 15 23 35 37 39 34 34 32 28 30 35 44 51 59 60 57 60 62 62 65 72 57 54 53
Wind_Direction_850mb
217 206 197 73 44 58 262 246 294 101 72 326 317 75 118 71 89 206 148 355 322 320 305 292 282 275 269 280 265 264 267 258 256 250 245 244 242 239 229 232 239 233 224 219 209 199 186 195 181
189 171 144 92 88 58 269 278 214 272 89 113 86 82 50 83 94 116 198 295 304 313 311 302 290 285 278 276 281 270 264 261 256 256 251 246 243 235 231 235 236 235 225 216 191 215 192 204 215
169 158 121 99 112 186 221 226 208 294 40 155 102 75 97 109 99 134 349 316 308 302 306 305 298 280 273 270 272 269 266 262 256 250 249 245 241 236 231 232 231 228 216 214 204 218 218 206 196
150 131 69 98 213 242 214 197 245 192 77 57 110 72 93 116 147 359 329 315 311 308 304 301 297 290 277 268 264 266 262 255 252 250 246 243 240 234 232 231 232 217 213 216 216 206 215 208 189
148 122 77 99 263 272 234 216 327 55 345 43 138 163 154 130 130 337 329 322 313 306 301 297 296 289 280 274 265 261 255 247 248 247 243 243 240 235 230 231 226 216 211 213 206 204 210 205 192
109 110 65 228 236 242 272 218 133 85 273 5 99 146 175 154 224 308 316 311 309 304 299 297 292 290 288 279 270 265 263 256 254 252 246 238 239 238 233 229 224 216 214 210 208 208 222 201 199
117 87 210 219 238 242 217 145 171 192 238 236 156 147 180 187 306 315 311 310 305 305 304 300 298 294 289 285 281 275 268 262 260 252 247 244 228 230 235 230 224 217 213 207 206 213 220 195 191
103 88 203 260 201 261 170 148 176 201 233 189 196 193 214 212 270 290 299 300 302 308 313 321 318 312 302 295 287 281 273 265 258 255 254 247 240 224 230 231 226 217 209 208 213 213 218 195 184
99 62 256 260 146 253 156 155 212 225 217 212 218 185 194 232 273 296 295 301 315 330 340 334 334 328 320 314 307 288 274 270 261 258 256 259 261 227 224 224 223 215 207 202 210 213 235 187 186
91 123 228 217 184 237 204 206 211 231 214 223 206 204 234 271 290 301 311 319 331 336 335 333 332 332 332 327 319 310 288 276 266 261 258 258 258 242 226 223 221 214 202 200 205 208 220 196 188
127 202 226 241 224 209 224 251 225 209 248 226 213 212 239 264 292 308 311 324 330 333 332 334 334 334 331 327 322 314 305 284 273 268 262 256 257 244 218 223 224 204 201 198 201 203 216 207 191
150 238 225 258 241 245 230 264 262 225 237 259 224 220 241 266 296 304 310 322 328 331 333 333 331 332 327 322 319 313 301 295 279 273 269 257 249 233 224 218 211 202 196 198 199 202 210 204 189
162 250 239 254 253 257 258 253 252 258 248 244 229 235 248 264 297 301 307 315 326 329 332 333 330 329 324 324 323 317 310 296 286 274 266 258 248 233 226 240 213 196 195 198 200 200 200 196 185
305 271 284 260 256 255 254 266 298 270 227 222 224 236 249 258 294 295 302 316 326 329 332 332 331 329 326 326 323 324 321 314 307 279 267 254 246 225 220 193 191 200 202 201 202 201 197 191 187
33 320 305 244 228 250 318 274 234 247 246 217 223 237 247 254 276 290 301 315 324 328 332 330 332 328 325 327 331 330 324 314 308 298 277 248 244 215 208 200 198 210 212 213 203 201 196 190 184
352 44 320 195 176 230 106 273 253 226 205 214 223 238 248 251 264 281 297 313 319 327 329 332 332 329 329 332 335 327 322 317 310 300 291 247 236 220 211 207 208 222 213 217 200 195 193 188 179
12 244 228 307 201 142 185 273 244 215 208 226 230 238 249 248 252 268 291 309 320 330 330 334 336 336 334 341 336 332 333 325 314 301 289 269 236 220 217 208 179 208 210 203 202 196 187 180 176
209 229 249 252 220 221 248 259 264 256 234 239 241 237 243 244 247 261 286 309 322 331 332 337 343 340 340 346 334 346 345 339 327 310 291 268 245 218 211 202 190 190 190 202 204 192 177 174 175
154 220 254 271 171 260 244 277 276 261 242 235 237 235 237 242 237 254 286 308 324 332 336 343 345 347 350 349 340 342 340 341 338 318 288 261 239 214 197 190 192 204 199 203 204 190 174 161 176
228 220 270 280 299 254 321 288 286 260 241 239 231 235 233 227 227 249 287 308 330 340 341 348 346 348 349 344 345 340 343 342 337 337 300 236 219 191 180 164 186 185 173 143 135 200 167 171 173
227 194 228 245 317 239 313 292 334 291 297 295 233 238 224 219 223 245 284 313 337 344 349 353 348 351 351 348 342 348 355 356 8 9 15 238 186 175 163 168 172 169 173 155 184 203 185 173 176
247 185 150 55 28 273 8 279 305 300 305 274 177 177 188 201 215 244 289 320 342 352 356 358 354 356 357 353 351 358 359 6 6 26 43 74 155 155 165 163 173 179 189 184 189 201 183 178 177
228 124 93 82 72 337 355 67 271 346 322 248 190 187 195 201 214 245 291 330 348 358 6 0 2 5 6 1 358 5 10 32 27 50 60 106 137 157 142 175 177 188 193 197 195 198 184 185 183
144 77 44 51 59 348 243 115 285 241 217 304 193 196 200 207 211 236 282 333 352 9 18 4 17 11 15 14 10 12 9 52 58 70 106 119 149 137 156 159 183 197 200 193 201 202 192 192 191
91 89 331 345 10 227 147 89 247 259 239 222 209 205 203 203 209 228 271 325 358 19 31 20 28 19 14 4 21 33 38 72 77 88 106 118 139 142 148 146 168 180 189 198 209 213 191 190 190
181 171 167 209 215 284 89 235 249 200 271 245 244 210 195 194 207 221 255 318 2 27 41 29 19 24 24 19 25 45 54 86 95 94 105 99 101 117 143 148 153 174 192 206 223 191 184 189 199
186 199 165 106 41 39 231 281 293 228 228 140 171 180 188 192 205 214 237 274 340 26 43 44 24 12 28 31 36 54 71 76 107 108 103 110 109 96 139 137 157 164 201 174 187 189 145 137 129
157 164 85 352 138 257 279 275 244 264 217 215 196 203 196 196 200 207 222 234 257 40 47 63 39 24 34 34 33 46 80 88 103 121 124 135 134 142 135 148 153 150 154 157 150 133 128 123 124
141 208 132 135 163 180 277 265 210 221 198 208 213 213 205 202 204 203 205 214 228 112 71 68 59 47 55 54 53 66 86 98 105 120 122 124 134 135 133 134 125 123 125 129 130 129 128 134 132
170 195 173 147 215 243 211 274 176 215 219 216 231 219 214 212 211 208 203 205 222 174 113 94 86 78 81 75 67 68 83 92 101 102 110 121 127 128 124 128 127 124 126 125 126 125 128 130 137